{"data":{"norad_id":64252,"epoch":"2026-09-20T12:05:16.933344Z","epoch_age_seconds":137293,"freshness":"FRESH","line1":"1 64252U 25119V   26263.50366821  .00014419  00000+0  53237-3 0  9998","line2":"2 64252  43.0026 286.8418 0001924 278.5633  81.5000 15.27586964 73965","mean_motion":15.27586964,"eccentricity":0.0001924,"inclination_deg":43.0026,"raan_deg":286.8418,"arg_perigee_deg":278.5633,"mean_anomaly_deg":81.5,"bstar":0.00053237,"rev_number":7396,"period_min":94.266318968142,"perigee_km":481.70815520476,"apogee_km":484.34833159042,"semimajor_km":6861.1652433976,"source":"CELESTRAK","updated_at":"2026-09-21T09:00:35.280310Z"}}